Project,Study,Ord_Occ,Event_Num,Date_Time_UTC,Date_Time_PST,Lat_Dec,Lon_Dec,Sta_ID,Line,Sta,Depth,Pressure,Temp0,Temp1,Salt0,CorrSalt0,Salt1,CorrSalt1,O2ml/L,AveCorrO2ml/L,StaCorrO2ml/L,FluorV,AveEstChl,StaEstChl,ISUSV,AveEstNO3,StaEstNO3,SigThetaTS0,SigThetaTS1,BAT,XMiss,SPAR,PAR,BTL_Depth,BTL_Temp,BTL_Salt,BTL_O2ml/L,BTL_Chl,BTL_Pha,BTL_NO3
CalCOFI,0707NH,057,,10-Jul-2007 08:29:13,10-Jul-2007 00:29:13,34.27262,-120.01497,081.8 046.9,081.8,046.9,571.000,575.917,6.4703,6.4700,34.2653,34.2667,34.2696,34.2673,-9.990e-29,,0.00,0.0260,,,1.2496,21.79,28.008,26.9183,26.9217,0.5753,86.6043,5.3425e+00,9.9990e+03,571,6.47 ,34.267,  .06,,,29.5
CalCOFI,0707NH,057,,10-Jul-2007 08:29:15,10-Jul-2007 00:29:15,34.27262,-120.01494,081.8 046.9,081.8,046.9,570.000,574.907,6.4706,6.4701,34.2651,34.2665,34.2694,34.2671,-9.990e-29,,0.00,0.0265,,,1.3005,22.87,29.611,26.9181,26.9215,0.5724,86.6660,5.2285e+00,9.9990e+03,,,,,,,
CalCOFI,0707NH,057,,10-Jul-2007 08:29:19,10-Jul-2007 00:29:19,34.27261,-120.01497,081.8 046.9,081.8,046.9,569.000,573.897,6.4701,6.4697,34.2653,34.2667,34.2695,34.2672,0.11124,0.06,0.07,0.0267,,,1.2706,22.24,28.669,26.9183,26.9217,0.5734,86.6443,5.3212e+00,9.9990e+03,,,,,,,
CalCOFI,0707NH,057,,10-Jul-2007 08:29:24,10-Jul-2007 00:29:24,34.27260,-120.01497,081.8 046.9,081.8,046.9,568.000,572.887,6.4702,6.4699,34.2652,34.2666,34.2694,34.2671,0.11188,0.06,0.07,0.0264,,,1.2642,22.10,28.468,26.9181,26.9215,0.5772,86.5617,5.1538e+00,9.9990e+03,,,,,,,
CalCOFI,0707NH,057,,10-Jul-2007 08:29:28,10-Jul-2007 00:29:28,34.27260,-120.01500,081.8 046.9,081.8,046.9,567.000,571.877,6.4707,6.4703,34.2653,34.2667,34.2694,34.2671,0.11169,0.06,0.07,0.0264,,,1.3007,22.88,29.617,26.9182,26.9215,0.5732,86.6494,5.5016e+00,9.9990e+03,,,,,,,
CalCOFI,0707NH,057,,10-Jul-2007 08:29:36,10-Jul-2007 00:29:36,34.27260,-120.01501,081.8 046.9,081.8,046.9,566.000,570.867,6.4709,6.4705,34.2652,34.2666,34.2694,34.2671,-9.990e-29,,0.07,0.0264,,,1.2978,22.82,29.526,26.9181,26.9214,0.5708,86.7006,5.4332e+00,9.9990e+03,566,6.47 ,34.266,  .05,,,29.5
CalCOFI,0707NH,057,,10-Jul-2007 08:30:08,10-Jul-2007 00:30:08,34.27259,-120.01508,081.8 046.9,081.8,046.9,565.000,569.857,6.4719,6.4716,34.2652,34.2666,34.2693,34.2670,0.11214,0.06,0.07,0.0264,,,1.2771,22.37,28.874,26.9179,26.9212,0.5708,86.7024,5.3446e+00,9.9990e+03,,,,,,,
CalCOFI,0707NH,057,,10-Jul-2007 08:30:40,10-Jul-2007 00:30:40,34.27260,-120.01518,081.8 046.9,081.8,046.9,564.000,568.847,6.4733,6.4729,34.2652,34.2666,34.2691,34.2668,0.11459,0.06,0.07,0.0266,,,1.3096,23.07,29.897,26.9177,26.9208,0.5690,86.7415,5.4058e+00,9.9990e+03,,,,,,,
CalCOFI,0707NH,057,,10-Jul-2007 08:30:44,10-Jul-2007 00:30:44,34.27261,-120.01518,081.8 046.9,081.8,046.9,563.000,567.837,6.4750,6.4748,34.2651,34.2665,34.2690,34.2667,0.11546,0.06,0.07,0.0263,,,1.2777,22.39,28.893,26.9174,26.9205,0.5647,86.8346,5.1949e+00,9.9990e+03,,,,,,,
CalCOFI,0707NH,057,,10-Jul-2007 08:30:46,10-Jul-2007 00:30:46,34.27262,-120.01518,081.8 046.9,081.8,046.9,562.000,566.827,6.4774,6.4770,34.2649,34.2663,34.2689,34.2666,0.11617,0.06,0.08,0.0265,,,1.2621,22.05,28.402,26.9169,26.9201,0.5658,86.8105,5.3382e+00,9.9990e+03,,,,,,,
CalCOFI,0707NH,057,,10-Jul-2007 08:30:48,10-Jul-2007 00:30:48,34.27262,-120.01518,081.8 046.9,081.8,046.9,561.000,565.817,6.4786,6.4781,34.2649,34.2663,34.2688,34.2665,0.11787,0.06,0.08,0.0264,,,1.2748,22.32,28.802,26.9167,26.9199,0.5661,86.8041,5.4314e+00,9.9990e+03,,,,,,,
CalCOFI,0707NH,057,,10-Jul-2007 08:30:51,10-Jul-2007 00:30:51,34.27262,-120.01518,081.8 046.9,081.8,046.9,560.000,564.807,6.4794,6.4790,34.2644,34.2658,34.2687,34.2664,0.12113,0.07,0.08,0.0265,,,1.3162,23.21,30.105,26.9162,26.9197,0.5600,86.9359,5.3844e+00,9.9990e+03,,,,,,,
CalCOFI,0707NH,057,,10-Jul-2007 08:30:53,10-Jul-2007 00:30:53,34.27262,-120.01520,081.8 046.9,081.8,046.9,559.000,563.797,6.4822,6.4822,34.2646,34.2660,34.2686,34.2663,0.12482,0.07,0.08,0.0263,,,1.2810,22.46,28.997,26.9160,26.9191,0.5475,87.2084,5.4705e+00,9.9990e+03,,,,,,,
CalCOFI,0707NH,057,,10-Jul-2007 08:30:55,10-Jul-2007 00:30:55,34.27262,-120.01520,081.8 046.9,081.8,046.9,558.000,562.787,6.4855,6.4852,34.2645,34.2659,34.2682,34.2659,0.12763,0.07,0.09,0.0266,,,1.2844,22.53,29.104,26.9155,26.9184,0.5442,87.2785,5.6494e+00,9.9990e+03,,,,,,,
CalCOFI,0707NH,057,,10-Jul-2007 08:30:57,10-Jul-2007 00:30:57,34.27262,-120.01520,081.8 046.9,081.8,046.9,557.000,561.777,6.4872,6.4868,34.2645,34.2659,34.2683,34.2660,0.13051,0.08,0.09,0.0264,,,1.3025,22.92,29.674,26.9152,26.9183,0.5399,87.3741,5.2658e+00,9.9990e+03,,,,,,,
CalCOFI,0707NH,057,,10-Jul-2007 08:31:00,10-Jul-2007 00:31:00,-9.990e-29,-120.01521,081.8 046.9,081.8,046.9,556.000,560.767,6.4891,6.4889,34.2643,34.2657,34.2680,34.2657,0.13297,0.08,0.09,0.0264,,,1.2999,22.86,29.592,26.9148,26.9178,0.5424,87.3190,5.3211e+00,9.9990e+03,,,,,,,
CalCOFI,0707NH,057,,10-Jul-2007 08:31:02,10-Jul-2007 00:31:02,34.27264,-120.01520,081.8 046.9,081.8,046.9,555.000,559.757,6.4915,6.4914,34.2640,34.2654,34.2680,34.2657,0.13423,0.08,0.09,0.0264,,,1.3091,23.06,29.882,26.9142,26.9174,0.5402,87.3676,5.7050e+00,9.9990e+03,,,,,,,
CalCOFI,0707NH,057,,10-Jul-2007 08:31:03,10-Jul-2007 00:31:03,34.27264,-120.01521,081.8 046.9,081.8,046.9,554.000,558.747,6.4931,6.4927,34.2640,34.2654,34.2678,34.2655,0.13446,0.08,0.09,0.0264,,,1.3061,22.99,29.787,26.9140,26.9171,0.5398,87.3753,5.3826e+00,9.9990e+03,,,,,,,
CalCOFI,0707NH,057,,10-Jul-2007 08:31:07,10-Jul-2007 00:31:07,34.27264,-120.01522,081.8 046.9,081.8,046.9,553.000,557.737,6.4927,6.4925,34.2640,34.2654,34.2679,34.2656,0.13640,0.08,0.10,0.0262,,,1.3098,23.07,29.904,26.9141,26.9172,0.5456,87.2499,5.2327e+00,9.9990e+03,,,,,,,
CalCOFI,0707NH,057,,10-Jul-2007 08:31:09,10-Jul-2007 00:31:09,34.27264,-120.01522,081.8 046.9,081.8,046.9,552.000,556.727,6.4945,6.4942,34.2638,34.2652,34.2674,34.2651,0.13672,0.08,0.10,0.0266,,,1.2749,22.33,28.805,26.9137,26.9166,0.5388,87.3983,5.5766e+00,9.9990e+03,,,,,,,
CalCOFI,0707NH,057,,10-Jul-2007 08:31:10,10-Jul-2007 00:31:10,34.27264,-120.01522,081.8 046.9,081.8,046.9,551.000,555.717,6.4951,6.4948,34.2638,34.2652,34.2676,34.2653,0.13795,0.09,0.10,0.0267,,,1.2810,22.46,28.997,26.9136,26.9166,0.5363,87.4538,5.4534e+00,9.9990e+03,,,,,,,
CalCOFI,0707NH,057,,10-Jul-2007 08:31:12,10-Jul-2007 00:31:12,34.27265,-9.990e-29,081.8 046.9,081.8,046.9,550.000,554.708,6.4952,6.4951,34.2639,34.2653,34.2677,34.2654,0.13923,0.09,0.10,0.0265,,,1.3044,22.96,29.734,26.9137,26.9167,0.5346,87.4894,5.3145e+00,9.9990e+03,,,,,,,
CalCOFI,0707NH,057,,10-Jul-2007 08:31:16,10-Jul-2007 00:31:16,34.27266,-120.01524,081.8 046.9,081.8,046.9,549.000,553.698,6.4954,6.4956,34.2638,34.2652,34.2676,34.2653,0.14216,0.09,0.10,0.0261,,,1.3016,22.90,29.645,26.9135,26.9165,0.5366,87.4468,5.5733e+00,9.9990e+03,,,,,,,
CalCOFI,0707NH,057,,10-Jul-2007 08:31:17,10-Jul-2007 00:31:17,34.27266,-120.01524,081.8 046.9,081.8,046.9,548.000,552.688,6.5024,6.5037,34.2632,34.2646,34.2661,34.2638,0.14730,0.10,0.11,0.0266,,,1.3005,22.87,29.611,26.9121,26.9143,0.5161,87.8947,5.5118e+00,9.9990e+03,,,,,,,
CalCOFI,0707NH,057,,10-Jul-2007 08:31:19,10-Jul-2007 00:31:19,34.27266,-120.01524,081.8 046.9,081.8,046.9,547.000,551.678,6.5102,6.5104,34.2630,34.2644,34.2666,34.2643,0.14974,0.10,0.11,0.0268,,,1.2917,22.69,29.334,26.9109,26.9137,0.4999,88.2511,5.3094e+00,9.9990e+03,,,,,,,
CalCOFI,0707NH,057,,10-Jul-2007 08:31:24,10-Jul-2007 00:31:24,34.27267,-120.01527,081.8 046.9,081.8,046.9,546.000,550.668,6.5093,6.5078,34.2630,34.2644,34.2669,34.2646,0.15658,0.11,0.12,0.0262,,,1.3143,23.17,30.045,26.9110,26.9143,0.5138,87.9453,5.7827e+00,9.9990e+03,,,,,,,
CalCOFI,0707NH,057,,10-Jul-2007 08:31:28,10-Jul-2007 00:31:28,34.27268,-120.01526,081.8 046.9,081.8,046.9,545.000,549.658,6.5120,6.5115,34.2629,34.2643,34.2666,34.2643,0.16016,0.11,0.12,0.0262,,,1.3143,23.17,30.045,26.9106,26.9136,0.4984,88.2859,5.4223e+00,9.9990e+03,,,,,,,
CalCOFI,0707NH,057,,10-Jul-2007 08:31:33,10-Jul-2007 00:31:33,-9.990e-29,-120.01527,081.8 046.9,081.8,046.9,544.000,548.648,6.5138,6.5124,34.2625,34.2639,34.2666,34.2643,0.16441,0.11,0.13,0.0266,,,1.3340,23.59,30.665,26.9100,26.9134,0.4930,88.4043,5.4568e+00,9.9990e+03,544,6.52 ,34.267,  .12,,,30.7
CalCOFI,0707NH,057,,10-Jul-2007 08:31:38,10-Jul-2007 00:31:38,34.27270,-120.01528,081.8 046.9,081.8,046.9,543.000,547.638,6.5146,6.5140,34.2627,34.2641,34.2664,34.2641,0.16603,0.12,0.13,0.0263,,,1.2969,22.80,29.497,26.9100,26.9130,0.4864,88.5512,5.3988e+00,9.9990e+03,,,,,,,
CalCOFI,0707NH,057,,10-Jul-2007 08:32:11,10-Jul-2007 00:32:11,34.27276,-120.01534,081.8 046.9,081.8,046.9,542.000,546.629,6.5177,6.5175,34.2624,34.2638,34.2661,34.2638,0.17005,0.12,0.13,0.0262,,,1.3246,23.39,30.370,26.9094,26.9124,0.4811,88.6669,5.4065e+00,9.9990e+03,,,,,,,
CalCOFI,0707NH,057,,10-Jul-2007 08:32:52,10-Jul-2007 00:32:52,34.27282,-120.01542,081.8 046.9,081.8,046.9,541.000,545.619,6.5181,6.5179,34.2625,34.2639,34.2660,34.2637,0.17245,0.12,0.13,0.0264,,,1.2810,22.46,28.997,26.9094,26.9122,0.4780,88.7362,5.5402e+00,9.9990e+03,,,,,,,
CalCOFI,0707NH,057,,10-Jul-2007 08:32:53,10-Jul-2007 00:32:53,34.27282,-120.01542,081.8 046.9,081.8,046.9,540.000,544.609,6.5226,6.5220,34.2622,34.2636,34.2657,34.2634,0.17473,0.12,0.14,0.0258,,,1.2975,22.81,29.516,26.9086,26.9114,0.4721,88.8678,5.3624e+00,9.9990e+03,,,,,,,
CalCOFI,0707NH,057,,10-Jul-2007 08:32:54,10-Jul-2007 00:32:54,34.27282,-120.01542,081.8 046.9,081.8,046.9,539.000,543.599,6.5266,6.5268,34.2618,34.2632,34.2654,34.2631,0.17756,0.13,0.14,0.0260,,,1.3368,23.65,30.754,26.9078,26.9105,0.4676,88.9679,5.6800e+00,9.9990e+03,,,,,,,
CalCOFI,0707NH,057,,10-Jul-2007 08:32:55,10-Jul-2007 00:32:55,34.27282,-120.01543,081.8 046.9,081.8,046.9,538.000,542.589,6.5285,6.5283,34.2618,34.2632,34.2652,34.2629,0.17947,0.13,0.14,0.0261,,,1.3136,23.15,30.023,26.9074,26.9102,0.4619,89.0943,5.4499e+00,9.9990e+03,,,,,,,
CalCOFI,0707NH,057,,10-Jul-2007 08:32:57,10-Jul-2007 00:32:57,34.27282,-120.01544,081.8 046.9,081.8,046.9,537.000,541.579,6.5305,6.5306,34.2616,34.2630,34.2652,34.2629,0.18155,0.13,0.14,0.0261,,,1.3601,24.14,31.487,26.9070,26.9098,0.4567,89.2098,5.5192e+00,9.9990e+03,,,,,,,
CalCOFI,0707NH,057,,10-Jul-2007 08:32:59,10-Jul-2007 00:32:59,34.27282,-120.01544,081.8 046.9,081.8,046.9,536.000,540.569,6.5310,6.5309,34.2615,34.2629,34.2650,34.2627,0.18210,0.13,0.15,0.0262,,,1.3127,23.13,29.995,26.9069,26.9096,0.4538,89.2752,5.4153e+00,9.9990e+03,,,,,,,
CalCOFI,0707NH,057,,10-Jul-2007 08:33:00,10-Jul-2007 00:33:00,34.27284,-120.01544,081.8 046.9,081.8,046.9,535.000,539.560,6.5329,6.5327,34.2615,34.2629,34.2648,34.2625,0.18166,0.13,0.14,0.0259,,,1.3107,23.09,29.932,26.9066,26.9092,0.4514,89.3282,5.2335e+00,9.9990e+03,,,,,,,
CalCOFI,0707NH,057,,10-Jul-2007 08:33:01,10-Jul-2007 00:33:01,34.27284,-120.01544,081.8 046.9,081.8,046.9,534.000,538.550,6.5332,6.5331,34.2615,34.2629,34.2649,34.2626,0.18186,0.13,0.14,0.0262,,,1.3137,23.15,30.026,26.9065,26.9093,0.4507,89.3436,5.2540e+00,9.9990e+03,,,,,,,
CalCOFI,0707NH,057,,10-Jul-2007 08:33:02,10-Jul-2007 00:33:02,34.27284,-120.01544,081.8 046.9,081.8,046.9,533.000,537.540,6.5331,6.5330,34.2614,34.2628,34.2648,34.2625,0.18218,0.13,0.15,0.0256,,,1.3054,22.98,29.765,26.9065,26.9092,0.4509,89.3377,5.3713e+00,9.9990e+03,,,,,,,
CalCOFI,0707NH,057,,10-Jul-2007 08:33:03,10-Jul-2007 00:33:03,34.27284,-120.01545,081.8 046.9,081.8,046.9,532.000,536.530,6.5338,6.5335,34.2613,34.2627,34.2647,34.2624,0.18182,0.13,0.14,0.0260,,,1.3094,23.06,29.891,26.9063,26.9090,0.4512,89.3333,5.1974e+00,9.9990e+03,,,,,,,
CalCOFI,0707NH,057,,10-Jul-2007 08:33:05,10-Jul-2007 00:33:05,34.27284,-120.01546,081.8 046.9,081.8,046.9,531.000,535.520,6.5331,6.5330,34.2614,34.2628,34.2649,34.2626,0.18082,0.13,0.14,0.0261,,,1.3324,23.55,30.615,26.9064,26.9092,0.4551,89.2453,5.4093e+00,9.9990e+03,,,,,,,
CalCOFI,0707NH,057,,10-Jul-2007 08:33:07,10-Jul-2007 00:33:07,34.27284,-120.01546,081.8 046.9,081.8,046.9,530.000,534.510,6.5349,6.5346,34.2610,34.2624,34.2646,34.2623,0.17818,0.13,0.14,0.0265,,,1.3241,23.38,30.354,26.9059,26.9088,0.4496,89.3689,5.3089e+00,9.9990e+03,,,,,,,
CalCOFI,0707NH,057,,10-Jul-2007 08:33:08,10-Jul-2007 00:33:08,34.27284,-120.01546,081.8 046.9,081.8,046.9,529.000,533.501,6.5362,6.5361,34.2612,34.2626,34.2644,34.2621,0.17869,0.13,0.14,0.0261,,,1.3541,24.02,31.298,26.9058,26.9084,0.4486,89.3896,5.8535e+00,9.9990e+03,,,,,,,
CalCOFI,0707NH,057,,10-Jul-2007 08:33:09,10-Jul-2007 00:33:09,34.27284,-120.01546,081.8 046.9,081.8,046.9,528.000,532.491,6.5369,6.5369,34.2611,34.2625,34.2644,34.2621,0.17960,0.13,0.14,0.0256,,,1.3303,23.51,30.549,26.9056,26.9083,0.4485,89.3919,4.9850e+00,9.9990e+03,,,,,,,
CalCOFI,0707NH,057,,10-Jul-2007 08:33:10,10-Jul-2007 00:33:10,34.27284,-120.01546,081.8 046.9,081.8,046.9,527.000,531.481,6.5380,6.5376,34.2610,34.2624,34.2644,34.2621,0.17929,0.13,0.14,0.0267,,,1.3337,23.58,30.656,26.9054,26.9082,0.4555,89.2367,5.5050e+00,9.9990e+03,,,,,,,
CalCOFI,0707NH,057,,10-Jul-2007 08:33:11,10-Jul-2007 00:33:11,34.27284,-120.01547,081.8 046.9,081.8,046.9,526.000,530.471,6.5490,6.5474,34.2601,34.2615,34.2639,34.2616,0.18090,0.13,0.14,0.0258,,,1.3465,23.85,31.059,26.9033,26.9065,0.4459,89.4504,5.4296e+00,9.9990e+03,,,,,,,
CalCOFI,0707NH,057,,10-Jul-2007 08:33:13,10-Jul-2007 00:33:13,34.27284,-120.01548,081.8 046.9,081.8,046.9,525.000,529.462,6.5498,6.5552,34.2603,34.2617,34.2634,34.2611,0.18148,0.13,0.14,0.0262,,,1.3537,24.01,31.286,26.9033,26.9051,0.4431,89.5142,5.7852e+00,9.9990e+03,,,,,,,
CalCOFI,0707NH,057,,10-Jul-2007 08:33:15,10-Jul-2007 00:33:15,34.27284,-120.01548,081.8 046.9,081.8,046.9,524.000,528.452,6.5595,6.5621,34.2594,34.2608,34.2631,34.2608,0.18393,0.13,0.15,0.0262,,,1.3555,24.05,31.342,26.9013,26.9039,0.4389,89.6093,5.3354e+00,9.9990e+03,,,,,,,
CalCOFI,0707NH,057,,10-Jul-2007 08:33:16,10-Jul-2007 00:33:16,34.27285,-120.01548,081.8 046.9,081.8,046.9,523.000,527.442,6.5700,6.5699,34.2589,34.2603,34.2622,34.2599,0.18247,0.13,0.15,0.0257,,,1.3665,24.28,31.689,26.8996,26.9022,0.4306,89.7949,5.6825e+00,9.9990e+03,,,,,,,
CalCOFI,0707NH,057,,10-Jul-2007 08:33:17,10-Jul-2007 00:33:17,34.27286,-120.01548,081.8 046.9,081.8,046.9,522.000,526.432,6.5711,6.5709,34.2588,34.2602,34.2622,34.2599,0.18143,0.13,0.14,0.0261,,,1.3798,24.56,32.107,26.8993,26.9020,0.4305,89.7962,5.3571e+00,9.9990e+03,,,,,,,
CalCOFI,0707NH,057,,10-Jul-2007 08:33:18,10-Jul-2007 00:33:18,34.27286,-120.01548,081.8 046.9,081.8,046.9,521.000,525.422,6.5754,6.5745,34.2584,34.2598,34.2621,34.2598,0.21053,0.16,0.18,0.0259,,,1.3664,24.28,31.686,26.8984,26.9014,0.4319,89.7656,5.5518e+00,9.9990e+03,,,,,,,
CalCOFI,0707NH,057,,10-Jul-2007 08:33:19,10-Jul-2007 00:33:19,34.27286,-120.01548,081.8 046.9,081.8,046.9,520.000,524.413,6.5804,6.5800,34.2581,34.2595,34.2615,34.2592,0.17775,0.13,0.14,0.0257,,,1.3377,23.67,30.782,26.8975,26.9002,0.4333,89.7338,5.4509e+00,9.9990e+03,,,,,,,
CalCOFI,0707NH,057,,10-Jul-2007 08:33:21,10-Jul-2007 00:33:21,34.27286,-9.990e-29,081.8 046.9,081.8,046.9,519.000,523.403,6.5807,6.5809,34.2582,34.2596,34.2615,34.2592,0.17525,0.12,0.14,0.0260,,,1.3115,23.11,29.957,26.8975,26.9001,0.4329,89.7443,5.4953e+00,9.9990e+03,,,,,,,
CalCOFI,0707NH,057,,10-Jul-2007 08:33:23,10-Jul-2007 00:33:23,34.27286,-120.01550,081.8 046.9,081.8,046.9,518.000,522.393,6.5807,6.5816,34.2580,34.2594,34.2614,34.2591,0.19442,0.15,0.16,0.0262,,,1.3037,22.94,29.712,26.8974,26.8999,0.4326,89.7503,5.5281e+00,9.9990e+03,,,,,,,
CalCOFI,0707NH,057,,10-Jul-2007 08:33:24,10-Jul-2007 00:33:24,34.27286,-120.01550,081.8 046.9,081.8,046.9,517.000,521.383,6.5829,6.5829,34.2580,34.2594,34.2612,34.2589,-9.990e-29,,0.16,0.0262,,,1.3087,23.05,29.869,26.8970,26.8996,0.4334,89.7328,5.5535e+00,9.9990e+03,,,,,,,
CalCOFI,0707NH,057,,10-Jul-2007 08:33:26,10-Jul-2007 00:33:26,34.27286,-120.01550,081.8 046.9,081.8,046.9,516.000,520.374,6.5835,6.5835,34.2578,34.2592,34.2612,34.2589,-9.990e-29,,0.16,0.0265,,,1.2994,22.85,29.576,26.8968,26.8995,0.4350,89.6955,5.4511e+00,9.9990e+03,,,,,,,
CalCOFI,0707NH,057,,10-Jul-2007 08:33:29,10-Jul-2007 00:33:29,34.27287,-120.01551,081.8 046.9,081.8,046.9,515.000,519.364,6.5829,6.5832,34.2578,34.2592,34.2612,34.2589,0.18784,0.14,0.15,0.0261,,,1.3124,23.13,29.985,26.8969,26.8995,0.4352,89.6927,5.4041e+00,9.9990e+03,,,,,,,
CalCOFI,0707NH,057,,10-Jul-2007 08:33:33,10-Jul-2007 00:33:33,34.27288,-120.01552,081.8 046.9,081.8,046.9,514.000,518.354,6.5837,6.5832,34.2577,34.2591,34.2612,34.2589,0.21125,0.16,0.18,0.0260,,,1.3353,23.61,30.706,26.8967,26.8995,0.4347,89.7032,5.5142e+00,9.9990e+03,,,,,,,
CalCOFI,0707NH,057,,10-Jul-2007 08:33:34,10-Jul-2007 00:33:34,34.27288,-120.01552,081.8 046.9,081.8,046.9,513.000,517.344,6.5857,6.5857,34.2575,34.2589,34.2609,34.2586,0.18659,0.14,0.15,0.0260,,,1.3049,22.97,29.749,26.8962,26.8989,0.4324,89.7553,5.4854e+00,9.9990e+03,,,,,,,
CalCOFI,0707NH,057,,10-Jul-2007 08:33:38,10-Jul-2007 00:33:38,34.27288,-120.01554,081.8 046.9,081.8,046.9,512.000,516.335,6.5853,6.5852,34.2576,34.2590,34.2610,34.2587,0.17732,0.13,0.14,0.0260,,,1.3282,23.46,30.483,26.8963,26.8990,0.4347,89.7026,5.3782e+00,9.9990e+03,512,6.59 ,34.258,  .14,,,30.2
CalCOFI,0707NH,057,,10-Jul-2007 08:34:27,10-Jul-2007 00:34:27,34.27293,-120.01565,081.8 046.9,081.8,046.9,511.000,515.325,6.5889,6.5886,34.2574,34.2588,34.2608,34.2585,0.17336,0.12,0.14,0.0260,,,1.3073,23.02,29.825,26.8957,26.8984,0.4316,89.7718,5.4625e+00,9.9990e+03,,,,,,,
CalCOFI,0707NH,057,,10-Jul-2007 08:35:02,10-Jul-2007 00:35:02,34.27298,-120.01572,081.8 046.9,081.8,046.9,510.000,514.315,6.5894,6.5892,34.2573,34.2587,34.2607,34.2584,0.16785,0.12,0.13,0.0258,,,1.2870,22.58,29.186,26.8956,26.8982,0.4320,89.7634,5.2951e+00,9.9990e+03,,,,,,,
CalCOFI,0707NH,057,,10-Jul-2007 08:35:03,10-Jul-2007 00:35:03,34.27298,-120.01572,081.8 046.9,081.8,046.9,509.000,513.306,6.5916,6.5909,34.2572,34.2586,34.2606,34.2583,0.16974,0.12,0.13,0.0260,,,1.2906,22.66,29.299,26.8951,26.8979,0.4310,89.7858,5.9067e+00,9.9990e+03,,,,,,,
CalCOFI,0707NH,057,,10-Jul-2007 08:35:04,10-Jul-2007 00:35:04,34.27298,-120.01573,081.8 046.9,081.8,046.9,508.000,512.296,6.5974,6.5968,34.2569,34.2583,34.2603,34.2580,0.17254,0.12,0.14,0.0260,,,1.3305,23.51,30.555,26.8942,26.8969,0.4233,89.9599,5.7719e+00,9.9990e+03,,,,,,,
CalCOFI,0707NH,057,,10-Jul-2007 08:35:07,10-Jul-2007 00:35:07,34.27298,-120.01574,081.8 046.9,081.8,046.9,507.000,511.286,6.5975,6.5976,34.2570,34.2584,34.2604,34.2581,0.17692,0.13,0.14,0.0261,,,1.3017,22.90,29.649,26.8942,26.8968,0.4243,89.9360,5.4448e+00,9.9990e+03,,,,,,,
CalCOFI,0707NH,057,,10-Jul-2007 08:35:08,10-Jul-2007 00:35:08,34.27298,-120.01573,081.8 046.9,081.8,046.9,506.000,510.276,6.6059,6.6051,34.2564,34.2578,34.2601,34.2578,0.19492,0.15,0.16,0.0256,,,1.2823,22.48,29.038,26.8926,26.8956,0.4189,90.0573,5.4387e+00,9.9990e+03,,,,,,,
CalCOFI,0707NH,057,,10-Jul-2007 08:35:09,10-Jul-2007 00:35:09,34.27298,-120.01572,081.8 046.9,081.8,046.9,505.000,509.267,6.6176,6.6155,34.2561,34.2575,34.2596,34.2573,0.18387,0.13,0.15,0.0259,,,1.3101,23.08,29.913,26.8908,26.8939,0.4173,90.0941,5.0380e+00,9.9990e+03,,,,,,,
CalCOFI,0707NH,057,,10-Jul-2007 08:35:10,10-Jul-2007 00:35:10,34.27298,-120.01574,081.8 046.9,081.8,046.9,504.000,508.257,6.6259,6.6253,34.2558,34.2572,34.2590,34.2567,0.18199,0.13,0.15,0.0257,,,1.3490,23.91,31.138,26.8894,26.8921,0.4183,90.0707,5.1449e+00,9.9990e+03,,,,,,,
CalCOFI,0707NH,057,,10-Jul-2007 08:35:11,10-Jul-2007 00:35:11,34.27298,-120.01574,081.8 046.9,081.8,046.9,503.000,507.247,6.6274,6.6273,34.2558,34.2572,34.2589,34.2566,0.18986,0.14,0.15,0.0270,,,1.3246,23.39,30.370,26.8892,26.8917,0.4174,90.0911,5.5615e+00,9.9990e+03,,,,,,,
CalCOFI,0707NH,057,,10-Jul-2007 08:35:14,10-Jul-2007 00:35:14,34.27299,-120.01576,081.8 046.9,081.8,046.9,502.000,506.238,6.6289,6.6293,34.2557,34.2571,34.2591,34.2568,0.20317,0.15,0.17,0.0260,,,1.3170,23.22,30.130,26.8889,26.8916,0.4177,90.0841,5.5020e+00,9.9990e+03,,,,,,,
CalCOFI,0707NH,057,,10-Jul-2007 08:35:16,10-Jul-2007 00:35:16,34.27300,-120.01574,081.8 046.9,081.8,046.9,501.000,505.228,6.6391,6.6395,34.2553,34.2567,34.2589,34.2566,0.19883,0.15,0.16,0.0261,,,1.3080,23.03,29.847,26.8873,26.8900,0.4176,90.0873,5.8459e+00,9.9990e+03,,,,,,,
CalCOFI,0707NH,057,,10-Jul-2007 08:35:17,10-Jul-2007 00:35:17,34.27300,-120.01574,081.8 046.9,081.8,046.9,500.000,504.218,6.6554,6.6550,34.2550,34.2564,34.2582,34.2559,0.20595,0.16,0.17,0.0262,,,1.2636,22.09,28.449,26.8848,26.8875,0.4185,90.0663,4.9534e+00,9.9990e+03,,,,,,,
CalCOFI,0707NH,057,,10-Jul-2007 08:35:17,10-Jul-2007 00:35:17,34.27300,-120.01574,081.8 046.9,081.8,046.9,499.000,503.209,6.6567,6.6567,34.2550,34.2564,34.2582,34.2559,0.18534,0.14,0.15,0.0260,,,1.2923,22.70,29.353,26.8846,26.8872,0.4189,90.0573,5.9635e+00,9.9990e+03,,,,,,,
CalCOFI,0707NH,057,,10-Jul-2007 08:35:18,10-Jul-2007 00:35:18,34.27300,-120.01576,081.8 046.9,081.8,046.9,498.000,502.199,6.6575,6.6574,34.2550,34.2564,34.2582,34.2559,0.19591,0.15,0.16,0.0260,,,1.3154,23.19,30.080,26.8846,26.8871,0.4202,90.0288,5.6900e+00,9.9990e+03,,,,,,,
CalCOFI,0707NH,057,,10-Jul-2007 08:35:20,10-Jul-2007 00:35:20,34.27300,-120.01577,081.8 046.9,081.8,046.9,497.000,501.189,6.6570,6.6570,34.2548,34.2562,34.2583,34.2560,0.21235,0.16,0.18,0.0256,,,1.3220,23.33,30.288,26.8845,26.8872,0.4221,89.9855,5.6905e+00,9.9990e+03,,,,,,,
CalCOFI,0707NH,057,,10-Jul-2007 08:35:23,10-Jul-2007 00:35:23,34.27300,-120.01577,081.8 046.9,081.8,046.9,496.000,500.180,6.6577,6.6577,34.2545,34.2559,34.2581,34.2558,0.21340,0.17,0.18,0.0258,,,1.3271,23.44,30.448,26.8841,26.8870,0.4200,90.0333,5.5320e+00,9.9990e+03,,,,,,,
CalCOFI,0707NH,057,,10-Jul-2007 08:35:24,10-Jul-2007 00:35:24,34.27300,-120.01576,081.8 046.9,081.8,046.9,495.000,499.170,6.6592,6.6590,34.2547,34.2561,34.2581,34.2558,0.21538,0.17,0.18,0.0263,,,1.3199,23.29,30.222,26.8841,26.8867,0.4201,90.0311,5.3534e+00,9.9990e+03,,,,,,,
CalCOFI,0707NH,057,,10-Jul-2007 08:35:25,10-Jul-2007 00:35:25,34.27300,-120.01576,081.8 046.9,081.8,046.9,494.000,498.160,6.6639,6.6633,34.2547,34.2561,34.2580,34.2557,0.21672,0.17,0.18,0.0259,,,1.3231,23.35,30.322,26.8834,26.8861,0.4187,90.0623,5.1817e+00,9.9990e+03,,,,,,,
CalCOFI,0707NH,057,,10-Jul-2007 08:35:26,10-Jul-2007 00:35:26,34.27300,-120.01576,081.8 046.9,081.8,046.9,493.000,497.151,6.6731,6.6725,34.2545,34.2559,34.2577,34.2554,0.21946,0.17,0.18,0.0257,,,1.3273,23.44,30.455,26.8820,26.8847,0.4178,90.0817,5.2258e+00,9.9990e+03,,,,,,,
CalCOFI,0707NH,057,,10-Jul-2007 08:35:27,10-Jul-2007 00:35:27,34.27300,-120.01578,081.8 046.9,081.8,046.9,492.000,496.141,6.6940,6.6925,34.2541,34.2555,34.2575,34.2552,0.22011,0.17,0.19,0.0259,,,1.3139,23.16,30.033,26.8789,26.8818,0.4184,90.0697,5.4069e+00,9.9990e+03,,,,,,,
CalCOFI,0707NH,057,,10-Jul-2007 08:35:29,10-Jul-2007 00:35:29,34.27300,-120.01579,081.8 046.9,081.8,046.9,491.000,495.132,6.6783,6.6763,34.2544,34.2558,34.2576,34.2553,0.22178,0.17,0.19,0.0256,,,1.3420,23.76,30.917,26.8813,26.8840,0.4192,90.0515,5.4146e+00,9.9990e+03,,,,,,,
CalCOFI,0707NH,057,,10-Jul-2007 08:35:31,10-Jul-2007 00:35:31,34.27301,-120.01578,081.8 046.9,081.8,046.9,490.000,494.122,6.6979,6.6947,34.2539,34.2553,34.2577,34.2554,0.22528,0.18,0.19,-9.990e-29,,,1.3667,24.28,31.695,26.8783,26.8816,0.4187,90.0622,4.7578e+00,9.9990e+03,,,,,,,
CalCOFI,0707NH,057,,10-Jul-2007 08:35:32,10-Jul-2007 00:35:32,34.27302,-120.01578,081.8 046.9,081.8,046.9,489.000,493.112,6.7110,6.7110,34.2538,34.2552,34.2567,34.2544,0.22673,0.18,0.19,-9.990e-29,,,1.3236,23.37,30.338,26.8764,26.8787,0.4212,90.0055,5.4942e+00,9.9990e+03,,,,,,,
CalCOFI,0707NH,057,,10-Jul-2007 08:35:33,10-Jul-2007 00:35:33,34.27301,-120.01579,081.8 046.9,081.8,046.9,488.000,492.103,6.7123,6.7122,34.2538,34.2552,34.2568,34.2545,0.22778,0.18,0.19,0.0262,,,1.3107,23.09,29.932,26.8762,26.8786,0.4182,90.0739,5.4034e+00,9.9990e+03,,,,,,,
CalCOFI,0707NH,057,,10-Jul-2007 08:35:35,10-Jul-2007 00:35:35,34.27301,-120.01580,081.8 046.9,081.8,046.9,487.000,491.093,6.7128,6.7129,34.2537,34.2551,34.2568,34.2545,0.22967,0.18,0.20,0.0258,,,1.3561,24.06,31.361,26.8760,26.8785,0.4177,90.0842,5.5483e+00,9.9990e+03,,,,,,,